Time,TemperatureF,DewpointF,PressureIn,WindDirection,WindDirectionDegrees,WindSpeedMPH,WindSpeedGustMPH,Humidity,HourlyPrecipIn,Conditions,Clouds,dailyrainin,SoftwareType,DateUTC
2013-08-12 00:00:00,70.4,69.8,30.05,SSW,199,3.0,3.0,98,0.00,,,0.00,Wunderground v.1.15,2013-08-12 04:00:00,
2013-08-12 00:05:00,70.4,69.8,30.05,SSW,198,4.0,4.0,98,0.00,,,0.00,Wunderground v.1.15,2013-08-12 04:05:00,
2013-08-12 00:10:00,70.3,69.7,30.05,SSW,211,2.0,2.0,98,0.00,,,0.01,Wunderground v.1.15,2013-08-12 04:10:00,
2013-08-12 00:15:00,70.3,69.7,30.05,SSW,200,1.0,2.0,98,1.22,,,0.07,Wunderground v.1.15,2013-08-12 04:15:00,
2013-08-12 00:20:00,70.1,69.8,30.05,South,180,1.0,1.0,99,0.83,,,0.12,Wunderground v.1.15,2013-08-12 04:20:00,
2013-08-12 00:25:00,70.1,69.8,30.05,South,180,1.0,1.0,99,1.79,,,0.21,Wunderground v.1.15,2013-08-12 04:25:00,
2013-08-12 00:30:00,69.9,69.6,30.05,South,180,0.0,0.0,99,0.79,,,0.30,Wunderground v.1.15,2013-08-12 04:30:00,
2013-08-12 00:40:00,69.9,69.6,30.05,SW,232,0.0,0.0,99,0.45,,,0.37,Wunderground v.1.15,2013-08-12 04:40:00,
2013-08-12 00:50:00,69.9,69.9,30.06,West,273,0.0,0.0,100,0.06,,,0.37,Wunderground v.1.15,2013-08-12 04:50:00,
2013-08-12 00:55:00,69.9,69.9,30.06,West,273,0.0,0.0,100,0.04,,,0.37,Wunderground v.1.15,2013-08-12 04:55:00,
2013-08-12 01:00:00,69.9,69.9,30.05,WSW,246,0.0,0.0,100,0.00,,,0.37,Wunderground v.1.15,2013-08-12 05:00:00,
2013-08-12 01:10:00,69.9,69.9,30.05,SW,218,0.0,2.0,100,0.00,,,0.37,Wunderground v.1.15,2013-08-12 05:10:00,
2013-08-12 01:20:00,69.9,69.9,30.05,SW,215,0.0,0.0,100,0.00,,,0.37,Wunderground v.1.15,2013-08-12 05:20:00,
2013-08-12 01:30:00,69.9,69.9,30.05,SW,215,0.0,0.0,100,0.00,,,0.37,Wunderground v.1.15,2013-08-12 05:30:00,
2013-08-12 01:35:00,69.8,69.8,30.05,SW,215,0.0,0.0,100,0.00,,,0.37,Wunderground v.1.15,2013-08-12 05:35:00,
2013-08-12 01:40:00,69.8,69.8,30.05,SW,215,0.0,0.0,100,0.00,,,0.37,Wunderground v.1.15,2013-08-12 05:40:00,
2013-08-12 01:50:00,69.6,69.6,30.05,SW,215,0.0,0.0,100,0.00,,,0.37,Wunderground v.1.15,2013-08-12 05:50:00,
2013-08-12 02:00:00,69.6,69.6,30.05,SW,215,0.0,0.0,100,0.00,,,0.37,Wunderground v.1.15,2013-08-12 06:00:00,
2013-08-12 02:10:00,69.6,69.6,30.05,SW,215,0.0,0.0,100,0.00,,,0.37,Wunderground v.1.15,2013-08-12 06:10:00,
2013-08-12 02:15:00,69.8,69.8,30.05,SW,215,0.0,0.0,100,0.00,,,0.37,Wunderground v.1.15,2013-08-12 06:15:00,
2013-08-12 02:20:00,69.8,69.8,30.05,SW,215,0.0,0.0,100,0.00,,,0.37,Wunderground v.1.15,2013-08-12 06:20:00,
2013-08-12 02:25:00,69.8,69.8,30.05,SW,215,0.0,0.0,100,0.00,,,0.37,Wunderground v.1.15,2013-08-12 06:25:00,
2013-08-12 02:30:00,69.8,69.8,30.05,SW,215,0.0,0.0,100,0.00,,,0.37,Wunderground v.1.15,2013-08-12 06:30:00,
2013-08-12 02:40:00,69.8,69.8,30.05,SW,215,0.0,0.0,100,0.00,,,0.37,Wunderground v.1.15,2013-08-12 06:40:00,
2013-08-12 02:50:00,69.8,69.8,30.05,SW,215,0.0,0.0,100,0.00,,,0.37,Wunderground v.1.15,2013-08-12 06:50:00,
2013-08-12 03:00:00,69.6,69.6,30.05,SW,215,0.0,0.0,100,0.00,,,0.37,Wunderground v.1.15,2013-08-12 07:00:00,
2013-08-12 03:05:00,69.6,69.6,30.04,SW,215,0.0,0.0,100,0.00,,,0.37,Wunderground v.1.15,2013-08-12 07:05:00,
2013-08-12 03:15:00,69.6,69.6,30.04,SW,215,0.0,0.0,100,0.00,,,0.37,Wunderground v.1.15,2013-08-12 07:15:00,
2013-08-12 03:20:00,69.4,69.4,30.04,SSW,192,0.0,0.0,100,0.00,,,0.37,Wunderground v.1.15,2013-08-12 07:20:00,
2013-08-12 03:30:00,69.1,69.1,30.04,SSW,202,0.0,0.0,100,0.00,,,0.37,Wunderground v.1.15,2013-08-12 07:30:00,
2013-08-12 03:40:00,69.1,69.1,30.04,SSW,202,0.0,0.0,100,0.00,,,0.37,Wunderground v.1.15,2013-08-12 07:40:00,
2013-08-12 03:45:00,69.1,69.1,30.03,SSW,202,0.0,0.0,100,0.00,,,0.37,Wunderground v.1.15,2013-08-12 07:45:00,
2013-08-12 03:50:00,69.1,69.1,30.03,SSW,202,0.0,0.0,100,0.00,,,0.37,Wunderground v.1.15,2013-08-12 07:50:00,
2013-08-12 04:00:00,69.3,69.3,30.03,SSW,202,0.0,0.0,100,0.00,,,0.37,Wunderground v.1.15,2013-08-12 08:00:00,
2013-08-12 04:05:00,69.3,69.3,30.03,SSW,202,0.0,0.0,100,0.00,,,0.37,Wunderground v.1.15,2013-08-12 08:05:00,
2013-08-12 04:10:00,69.3,69.3,30.04,SSW,202,0.0,0.0,100,0.00,,,0.37,Wunderground v.1.15,2013-08-12 08:10:00,
2013-08-12 04:15:00,69.3,69.3,30.04,SSW,202,0.0,0.0,100,0.00,,,0.37,Wunderground v.1.15,2013-08-12 08:15:00,
2013-08-12 04:20:00,69.3,69.3,30.04,SSW,202,0.0,0.0,100,0.00,,,0.37,Wunderground v.1.15,2013-08-12 08:20:00,
2013-08-12 04:25:00,69.3,69.3,30.04,SSW,202,0.0,0.0,100,0.00,,,0.37,Wunderground v.1.15,2013-08-12 08:25:00,
2013-08-12 04:30:00,69.3,69.3,30.04,SSW,202,0.0,0.0,100,0.00,,,0.37,Wunderground v.1.15,2013-08-12 08:30:00,
2013-08-12 04:40:00,69.3,69.3,30.04,SSW,202,0.0,0.0,100,0.00,,,0.37,Wunderground v.1.15,2013-08-12 08:40:00,
2013-08-12 04:50:00,69.3,69.3,30.05,SSW,202,0.0,0.0,100,0.00,,,0.37,Wunderground v.1.15,2013-08-12 08:50:00,
2013-08-12 05:00:00,69.3,69.3,30.04,SSW,202,0.0,0.0,100,0.00,,,0.37,Wunderground v.1.15,2013-08-12 09:00:00,
2013-08-12 05:10:00,69.3,69.3,30.05,SSW,202,0.0,0.0,100,0.00,,,0.37,Wunderground v.1.15,2013-08-12 09:10:00,
2013-08-12 05:15:00,69.3,69.3,30.05,SSW,202,0.0,0.0,100,0.00,,,0.37,Wunderground v.1.15,2013-08-12 09:15:00,
2013-08-12 05:20:00,69.3,69.3,30.04,SSW,202,0.0,0.0,100,0.00,,,0.37,Wunderground v.1.15,2013-08-12 09:20:00,
2013-08-12 05:30:00,69.3,69.3,30.04,SSW,202,0.0,0.0,100,0.00,,,0.37,Wunderground v.1.15,2013-08-12 09:30:00,
2013-08-12 05:35:00,69.3,69.3,30.04,SSW,202,0.0,0.0,100,0.00,,,0.37,Wunderground v.1.15,2013-08-12 09:35:00,
2013-08-12 05:45:00,69.3,69.3,30.04,SSW,202,0.0,0.0,100,0.00,,,0.37,Wunderground v.1.15,2013-08-12 09:45:00,
2013-08-12 05:55:00,69.3,69.3,30.04,SSW,202,0.0,0.0,100,0.00,,,0.37,Wunderground v.1.15,2013-08-12 09:55:00,
2013-08-12 06:05:00,69.3,69.3,30.05,SSW,202,0.0,0.0,100,0.00,,,0.37,Wunderground v.1.15,2013-08-12 10:05:00,
2013-08-12 06:10:00,69.3,69.3,30.05,SSW,202,0.0,0.0,100,0.00,,,0.37,Wunderground v.1.15,2013-08-12 10:10:00,
2013-08-12 06:20:00,69.4,69.4,30.05,SSW,202,0.0,0.0,100,0.00,,,0.37,Wunderground v.1.15,2013-08-12 10:20:00,
2013-08-12 06:30:00,69.3,69.3,30.05,SSW,202,0.0,0.0,100,0.00,,,0.37,Wunderground v.1.15,2013-08-12 10:30:00,
2013-08-12 06:40:00,69.3,69.3,30.06,SSW,202,0.0,0.0,100,0.00,,,0.37,Wunderground v.1.15,2013-08-12 10:40:00,
2013-08-12 06:45:00,69.3,69.3,30.05,SSW,202,0.0,0.0,100,0.00,,,0.37,Wunderground v.1.15,2013-08-12 10:45:00,
2013-08-12 06:50:00,69.3,69.3,30.05,SSW,202,0.0,0.0,100,0.00,,,0.37,Wunderground v.1.15,2013-08-12 10:50:00,
2013-08-12 06:55:00,69.3,69.3,30.05,SSW,202,0.0,0.0,100,0.00,,,0.37,Wunderground v.1.15,2013-08-12 10:55:00,
2013-08-12 07:00:00,69.3,69.3,30.05,SSW,202,0.0,0.0,100,0.00,,,0.37,Wunderground v.1.15,2013-08-12 11:00:00,
2013-08-12 07:10:00,69.3,69.3,30.05,SSW,202,0.0,0.0,100,0.00,,,0.37,Wunderground v.1.15,2013-08-12 11:10:00,
2013-08-12 07:20:00,69.1,69.1,30.05,SSW,202,0.0,0.0,100,0.00,,,0.37,Wunderground v.1.15,2013-08-12 11:20:00,
2013-08-12 07:30:00,69.4,69.4,30.05,SSW,202,0.0,0.0,100,0.00,,,0.37,Wunderground v.1.15,2013-08-12 11:30:00,
2013-08-12 07:35:00,69.6,69.6,30.05,SSW,202,0.0,0.0,100,0.00,,,0.37,Wunderground v.1.15,2013-08-12 11:35:00,
2013-08-12 07:40:00,69.6,69.6,30.05,SSW,202,0.0,0.0,100,0.00,,,0.37,Wunderground v.1.15,2013-08-12 11:40:00,
2013-08-12 07:45:00,69.4,69.4,30.05,SSW,202,0.0,0.0,100,0.00,,,0.37,Wunderground v.1.15,2013-08-12 11:45:00,
2013-08-12 07:50:00,69.4,69.4,30.05,SSW,202,0.0,0.0,100,0.00,,,0.37,Wunderground v.1.15,2013-08-12 11:50:00,
2013-08-12 08:00:00,69.8,69.8,30.05,SSW,202,0.0,0.0,100,0.00,,,0.37,Wunderground v.1.15,2013-08-12 12:00:00,
2013-08-12 08:10:00,69.9,69.9,30.05,SSW,202,0.0,0.0,100,0.00,,,0.37,Wunderground v.1.15,2013-08-12 12:10:00,
2013-08-12 08:20:00,69.9,69.9,30.04,SSW,202,0.0,0.0,100,0.00,,,0.37,Wunderground v.1.15,2013-08-12 12:20:00,
2013-08-12 08:25:00,70.1,70.1,30.04,SSW,202,0.0,0.0,100,0.00,,,0.37,Wunderground v.1.15,2013-08-12 12:25:00,
2013-08-12 08:30:00,70.1,70.1,30.04,SSW,202,0.0,0.0,100,0.00,,,0.37,Wunderground v.1.15,2013-08-12 12:30:00,
2013-08-12 08:40:00,70.3,70.3,30.04,SSW,202,0.0,0.0,100,0.00,,,0.37,Wunderground v.1.15,2013-08-12 12:40:00,
2013-08-12 08:45:00,70.4,70.4,30.04,SSW,202,0.0,0.0,100,0.00,,,0.37,Wunderground v.1.15,2013-08-12 12:45:00,
2013-08-12 08:50:00,70.8,70.8,30.04,SSW,202,0.0,0.0,100,0.00,,,0.37,Wunderground v.1.15,2013-08-12 12:50:00,
2013-08-12 09:00:00,70.8,70.5,30.04,SSW,201,0.0,0.0,99,0.00,,,0.37,Wunderground v.1.15,2013-08-12 13:00:00,
2013-08-12 09:10:00,71.1,70.5,30.04,SSW,201,0.0,0.0,98,0.00,,,0.37,Wunderground v.1.15,2013-08-12 13:10:00,
2013-08-12 09:15:00,70.9,70.0,30.04,SSW,208,0.0,0.0,97,0.00,,,0.37,Wunderground v.1.15,2013-08-12 13:15:00,
2013-08-12 09:20:00,70.8,69.9,30.03,SSW,209,0.0,0.0,97,0.00,,,0.37,Wunderground v.1.15,2013-08-12 13:20:00,
2013-08-12 09:30:00,71.3,70.1,30.03,SSW,210,0.0,0.0,96,0.00,,,0.37,Wunderground v.1.15,2013-08-12 13:30:00,
2013-08-12 09:40:00,72.0,69.9,30.03,SW,221,1.0,1.0,93,0.00,,,0.37,Wunderground v.1.15,2013-08-12 13:40:00,
2013-08-12 09:45:00,72.1,70.3,30.03,SW,221,1.0,1.0,94,0.00,,,0.37,Wunderground v.1.15,2013-08-12 13:45:00,
2013-08-12 09:50:00,72.5,70.4,30.03,SSW,211,1.0,4.0,93,0.00,,,0.37,Wunderground v.1.15,2013-08-12 13:50:00,
2013-08-12 10:00:00,73.0,70.5,30.03,SW,223,0.0,0.0,92,0.00,,,0.37,Wunderground v.1.15,2013-08-12 14:00:00,
2013-08-12 10:05:00,73.2,70.7,30.03,SW,223,0.0,0.0,92,0.00,,,0.37,Wunderground v.1.15,2013-08-12 14:05:00,
2013-08-12 10:10:00,73.5,70.7,30.03,SSW,212,0.0,0.0,91,0.00,,,0.37,Wunderground v.1.15,2013-08-12 14:10:00,
2013-08-12 10:20:00,73.9,70.1,30.03,SSW,202,0.0,0.0,88,0.00,,,0.37,Wunderground v.1.15,2013-08-12 14:20:00,
2013-08-12 10:30:00,73.9,70.5,30.04,SSW,207,1.0,3.0,89,0.00,,,0.37,Wunderground v.1.15,2013-08-12 14:30:00,
2013-08-12 10:40:00,74.2,70.7,30.04,SSW,207,0.0,0.0,89,0.00,,,0.37,Wunderground v.1.15,2013-08-12 14:40:00,
2013-08-12 10:50:00,74.9,71.8,30.04,SSW,207,0.0,0.0,90,0.00,,,0.37,Wunderground v.1.15,2013-08-12 14:50:00,
2013-08-12 11:00:00,75.4,71.9,30.04,SSW,201,1.0,6.0,89,0.00,,,0.37,Wunderground v.1.15,2013-08-12 15:00:00,
2013-08-12 11:10:00,75.8,72.3,30.04,SSW,195,1.0,1.0,89,0.00,,,0.37,Wunderground v.1.15,2013-08-12 15:10:00,
2013-08-12 11:20:00,75.8,71.3,30.04,South,179,2.0,3.0,86,0.00,,,0.37,Wunderground v.1.15,2013-08-12 15:20:00,
2013-08-12 11:30:00,76.0,72.2,30.04,South,170,2.0,2.0,88,0.00,,,0.37,Wunderground v.1.15,2013-08-12 15:30:00,
2013-08-12 11:40:00,75.8,71.0,30.03,SSW,211,2.0,2.0,85,0.00,,,0.37,Wunderground v.1.15,2013-08-12 15:40:00,
2013-08-12 11:50:00,76.3,71.5,30.03,SW,221,1.0,3.0,85,0.00,,,0.37,Wunderground v.1.15,2013-08-12 15:50:00,
2013-08-12 12:00:00,76.1,71.3,30.03,SSW,200,2.0,5.0,85,0.00,,,0.37,Wunderground v.1.15,2013-08-12 16:00:00,
2013-08-12 12:05:00,76.3,72.1,30.03,SW,225,2.0,5.0,87,0.00,,,0.37,Wunderground v.1.15,2013-08-12 16:05:00,
2013-08-12 12:15:00,76.3,71.8,30.03,SSW,198,2.0,6.0,86,0.00,,,0.37,Wunderground v.1.15,2013-08-12 16:15:00,
2013-08-12 12:25:00,76.1,70.6,30.03,SW,221,2.0,3.0,83,0.00,,,0.37,Wunderground v.1.15,2013-08-12 16:25:00,
2013-08-12 12:30:00,76.5,70.9,30.03,SSW,194,3.0,6.0,83,0.00,,,0.37,Wunderground v.1.15,2013-08-12 16:30:00,
2013-08-12 12:40:00,77.6,70.9,30.02,SW,219,4.0,4.0,80,0.00,,,0.37,Wunderground v.1.15,2013-08-12 16:40:00,
2013-08-12 12:50:00,77.6,71.3,30.03,SSW,208,4.0,7.0,81,0.00,,,0.37,Wunderground v.1.15,2013-08-12 16:50:00,
2013-08-12 13:00:00,77.9,72.0,30.02,SSW,201,4.0,4.0,82,0.00,,,0.37,Wunderground v.1.15,2013-08-12 17:00:00,
2013-08-12 13:05:00,78.5,71.4,30.02,SW,214,2.0,4.0,79,0.00,,,0.37,Wunderground v.1.15,2013-08-12 17:05:00,
2013-08-12 13:15:00,79.4,71.6,30.02,SW,234,3.0,6.0,77,0.00,,,0.37,Wunderground v.1.15,2013-08-12 17:15:00,
2013-08-12 13:25:00,79.9,72.8,30.01,SSW,202,3.0,7.0,79,0.00,,,0.37,Wunderground v.1.15,2013-08-12 17:25:00,
2013-08-12 13:35:00,79.2,71.4,30.01,SSW,200,5.0,5.0,77,0.00,,,0.37,Wunderground v.1.15,2013-08-12 17:35:00,
2013-08-12 13:40:00,79.0,71.2,30.01,SSW,202,4.0,4.0,77,0.00,,,0.37,Wunderground v.1.15,2013-08-12 17:40:00,
2013-08-12 13:45:00,78.6,70.4,30.00,SSW,205,4.0,4.0,76,0.00,,,0.37,Wunderground v.1.15,2013-08-12 17:45:00,
2013-08-12 13:55:00,78.8,72.5,30.00,SSW,209,2.0,5.0,81,0.00,,,0.37,Wunderground v.1.15,2013-08-12 17:55:00,
2013-08-12 14:05:00,79.6,72.9,30.00,South,190,2.0,7.0,80,0.00,,,0.37,Wunderground v.1.15,2013-08-12 18:05:00,
2013-08-12 14:10:00,79.2,72.9,29.99,SSW,192,3.0,3.0,81,0.00,,,0.37,Wunderground v.1.15,2013-08-12 18:10:00,
2013-08-12 14:15:00,79.0,72.3,29.99,SSW,195,3.0,3.0,80,0.00,,,0.37,Wunderground v.1.15,2013-08-12 18:15:00,
2013-08-12 14:25:00,79.4,72.7,29.99,SSW,193,1.0,5.0,80,0.00,,,0.37,Wunderground v.1.15,2013-08-12 18:25:00,
2013-08-12 14:30:00,79.6,72.1,29.99,South,180,1.0,1.0,78,0.00,,,0.37,Wunderground v.1.15,2013-08-12 18:30:00,
2013-08-12 14:40:00,80.1,71.5,29.98,SW,214,1.0,1.0,75,0.00,,,0.37,Wunderground v.1.15,2013-08-12 18:40:00,
2013-08-12 14:55:00,79.6,71.4,29.97,SSW,199,0.0,0.0,76,0.00,,,0.37,Wunderground v.1.15,2013-08-12 18:55:00,
2013-08-12 15:00:00,79.2,71.7,29.98,SSW,194,0.0,0.0,78,0.00,,,0.37,Wunderground v.1.15,2013-08-12 19:00:00,
2013-08-12 15:10:00,78.5,71.1,29.97,SSW,205,1.0,1.0,78,0.00,,,0.37,Wunderground v.1.15,2013-08-12 19:10:00,
2013-08-12 15:15:00,78.6,71.9,29.97,SSW,199,1.0,5.0,80,0.00,,,0.37,Wunderground v.1.15,2013-08-12 19:15:00,
2013-08-12 15:20:00,78.8,71.4,29.97,SW,214,2.0,2.0,78,0.00,,,0.37,Wunderground v.1.15,2013-08-12 19:20:00,
2013-08-12 15:30:00,79.8,72.3,29.96,SSW,196,2.0,4.0,78,0.00,,,0.37,Wunderground v.1.15,2013-08-12 19:30:00,
2013-08-12 15:40:00,79.9,72.8,29.96,SSW,201,1.0,1.0,79,0.00,,,0.37,Wunderground v.1.15,2013-08-12 19:40:00,
2013-08-12 15:50:00,78.8,72.1,29.95,SSW,194,1.0,1.0,80,0.00,,,0.37,Wunderground v.1.15,2013-08-12 19:50:00,
2013-08-12 16:00:00,79.4,73.4,29.95,South,178,0.0,4.0,82,0.00,,,0.37,Wunderground v.1.15,2013-08-12 20:00:00,
2013-08-12 16:05:00,79.2,72.9,29.95,SSW,207,1.0,4.0,81,0.00,,,0.37,Wunderground v.1.15,2013-08-12 20:05:00,
2013-08-12 16:15:00,79.2,72.1,29.94,South,186,1.0,2.0,79,0.00,,,0.37,Wunderground v.1.15,2013-08-12 20:15:00,
2013-08-12 16:25:00,79.9,72.8,29.94,SSW,209,0.0,0.0,79,0.00,,,0.37,Wunderground v.1.15,2013-08-12 20:25:00,
2013-08-12 16:30:00,80.1,72.6,29.94,South,190,0.0,0.0,78,0.00,,,0.37,Wunderground v.1.15,2013-08-12 20:30:00,
2013-08-12 16:35:00,80.1,72.2,29.93,South,190,1.0,1.0,77,0.00,,,0.37,Wunderground v.1.15,2013-08-12 20:35:00,
2013-08-12 16:45:00,79.4,72.3,29.94,SSW,203,1.0,2.0,79,0.00,,,0.37,Wunderground v.1.15,2013-08-12 20:45:00,
2013-08-12 16:50:00,78.8,71.7,29.93,South,190,1.0,4.0,79,0.00,,,0.37,Wunderground v.1.15,2013-08-12 20:50:00,
2013-08-12 17:00:00,78.6,71.5,29.93,SSW,196,1.0,1.0,79,0.00,,,0.37,Wunderground v.1.15,2013-08-12 21:00:00,
2013-08-12 17:10:00,78.5,72.2,29.93,SSW,196,0.0,0.0,81,0.00,,,0.37,Wunderground v.1.15,2013-08-12 21:10:00,
2013-08-12 17:15:00,78.8,72.5,29.93,SSW,196,0.0,0.0,81,0.00,,,0.37,Wunderground v.1.15,2013-08-12 21:15:00,
2013-08-12 17:25:00,78.6,72.3,29.94,SSW,194,1.0,6.0,81,0.00,,,0.37,Wunderground v.1.15,2013-08-12 21:25:00,
2013-08-12 17:30:00,78.5,72.2,29.94,SSW,198,1.0,1.0,81,0.00,,,0.37,Wunderground v.1.15,2013-08-12 21:30:00,
2013-08-12 17:40:00,78.1,72.5,29.93,SSW,196,0.0,0.0,83,0.00,,,0.37,Wunderground v.1.15,2013-08-12 21:40:00,
2013-08-12 17:50:00,77.7,71.8,29.93,SSW,196,1.0,1.0,82,0.00,,,0.37,Wunderground v.1.15,2013-08-12 21:50:00,
2013-08-12 18:00:00,77.4,71.8,29.93,South,190,1.0,1.0,83,0.00,,,0.37,Wunderground v.1.15,2013-08-12 22:00:00,
2013-08-12 18:10:00,77.2,72.0,29.94,SSW,204,0.0,0.0,84,0.00,,,0.37,Wunderground v.1.15,2013-08-12 22:10:00,
2013-08-12 18:15:00,77.2,72.3,29.93,SSW,202,0.0,0.0,85,0.00,,,0.37,Wunderground v.1.15,2013-08-12 22:15:00,
2013-08-12 18:20:00,77.0,72.1,29.93,SSW,202,0.0,0.0,85,0.00,,,0.37,Wunderground v.1.15,2013-08-12 22:20:00,
2013-08-12 18:30:00,77.0,72.1,29.93,SSW,205,0.0,0.0,85,0.00,,,0.37,Wunderground v.1.15,2013-08-12 22:30:00,
2013-08-12 18:40:00,74.6,67.7,29.95,WNW,300,3.0,3.0,79,0.00,,,0.37,Wunderground v.1.15,2013-08-12 22:40:00,
2013-08-12 18:45:00,71.6,66.8,29.95,West,267,6.0,6.0,85,0.54,,,0.42,Wunderground v.1.15,2013-08-12 22:45:00,
2013-08-12 18:50:00,69.8,66.1,29.95,NW,313,5.0,5.0,88,0.31,,,0.45,Wunderground v.1.15,2013-08-12 22:50:00,
2013-08-12 19:00:00,68.6,65.5,29.98,NW,308,1.0,1.0,90,0.09,,,0.47,Wunderground v.1.15,2013-08-12 23:00:00,
2013-08-12 19:10:00,68.3,66.2,29.96,NW,319,1.0,1.0,93,1.01,,,0.68,Wunderground v.1.15,2013-08-12 23:10:00,
2013-08-12 19:20:00,67.8,66.0,29.97,NW,319,0.0,0.0,94,0.29,,,0.78,Wunderground v.1.15,2013-08-12 23:20:00,
2013-08-12 19:25:00,67.6,66.1,29.98,NW,319,0.0,0.0,95,0.58,,,0.80,Wunderground v.1.15,2013-08-12 23:25:00,
2013-08-12 19:35:00,67.4,65.9,29.98,NW,319,0.0,0.0,95,0.07,,,0.81,Wunderground v.1.15,2013-08-12 23:35:00,
2013-08-12 19:40:00,67.4,66.2,29.97,South,190,0.0,0.0,96,0.06,,,0.82,Wunderground v.1.15,2013-08-12 23:40:00,
2013-08-12 19:45:00,67.4,66.2,29.97,SE,138,0.0,0.0,96,0.06,,,0.82,Wunderground v.1.15,2013-08-12 23:45:00,
2013-08-12 19:55:00,67.4,66.2,29.97,NW,322,0.0,0.0,96,0.00,,,0.82,Wunderground v.1.15,2013-08-12 23:55:00,
2013-08-12 20:00:00,67.3,66.1,29.97,NW,322,0.0,0.0,96,0.00,,,0.82,Wunderground v.1.15,2013-08-13 00:00:00,
2013-08-12 20:10:00,67.3,66.1,29.97,NW,322,0.0,0.0,96,0.00,,,0.82,Wunderground v.1.15,2013-08-13 00:10:00,
2013-08-12 20:15:00,67.1,65.9,29.98,NW,322,0.0,0.0,96,0.00,,,0.82,Wunderground v.1.15,2013-08-13 00:15:00,
2013-08-12 20:25:00,66.9,65.7,29.98,NW,322,0.0,0.0,96,0.00,,,0.82,Wunderground v.1.15,2013-08-13 00:25:00,
2013-08-12 20:35:00,67.1,66.2,29.98,NW,322,0.0,0.0,97,0.00,,,0.83,Wunderground v.1.15,2013-08-13 00:35:00,
2013-08-12 20:45:00,67.1,66.2,29.98,NW,322,0.0,0.0,97,0.00,,,0.83,Wunderground v.1.15,2013-08-13 00:45:00,
2013-08-12 20:50:00,67.1,66.2,29.98,NW,322,0.0,0.0,97,0.00,,,0.83,Wunderground v.1.15,2013-08-13 00:50:00,
2013-08-12 21:00:00,66.9,66.3,29.97,NW,322,0.0,0.0,98,0.00,,,0.84,Wunderground v.1.15,2013-08-13 01:00:00,
2013-08-12 21:05:00,66.9,66.0,29.97,NW,322,0.0,0.0,97,0.00,,,0.84,Wunderground v.1.15,2013-08-13 01:05:00,
2013-08-12 21:10:00,66.8,66.2,29.97,NW,322,0.0,0.0,98,0.00,,,0.84,Wunderground v.1.15,2013-08-13 01:10:00,
2013-08-12 21:15:00,66.8,66.2,29.96,NW,322,0.0,0.0,98,0.00,,,0.84,Wunderground v.1.15,2013-08-13 01:15:00,
2013-08-12 21:20:00,66.8,65.9,29.96,NW,322,0.0,0.0,97,0.00,,,0.84,Wunderground v.1.15,2013-08-13 01:20:00,
2013-08-12 21:25:00,66.8,65.9,29.96,NW,322,0.0,0.0,97,0.00,,,0.84,Wunderground v.1.15,2013-08-13 01:25:00,
2013-08-12 21:30:00,66.8,66.2,29.96,NW,322,0.0,0.0,98,0.00,,,0.84,Wunderground v.1.15,2013-08-13 01:30:00,
2013-08-12 21:40:00,66.6,66.0,29.95,NW,322,0.0,0.0,98,0.00,,,0.84,Wunderground v.1.15,2013-08-13 01:40:00,
2013-08-12 21:45:00,66.6,66.0,29.95,NW,322,0.0,0.0,98,0.00,,,0.84,Wunderground v.1.15,2013-08-13 01:45:00,
2013-08-12 21:50:00,66.4,65.8,29.95,NW,322,0.0,0.0,98,0.00,,,0.84,Wunderground v.1.15,2013-08-13 01:50:00,
2013-08-12 21:55:00,66.3,65.7,29.95,NW,322,0.0,0.0,98,0.00,,,0.84,Wunderground v.1.15,2013-08-13 01:55:00,
2013-08-12 22:05:00,66.1,65.5,29.95,NW,322,0.0,0.0,98,0.00,,,0.84,Wunderground v.1.15,2013-08-13 02:05:00,
2013-08-12 22:10:00,66.1,65.5,29.95,NW,322,0.0,0.0,98,0.00,,,0.84,Wunderground v.1.15,2013-08-13 02:10:00,
2013-08-12 22:15:00,66.0,65.4,29.95,NW,322,0.0,0.0,98,0.00,,,0.84,Wunderground v.1.15,2013-08-13 02:15:00,
2013-08-12 22:20:00,66.0,65.4,29.96,NW,322,0.0,0.0,98,0.00,,,0.84,Wunderground v.1.15,2013-08-13 02:20:00,
2013-08-12 22:30:00,65.8,65.2,29.95,NW,322,0.0,0.0,98,0.00,,,0.84,Wunderground v.1.15,2013-08-13 02:30:00,
2013-08-12 22:40:00,65.6,65.0,29.95,NW,322,0.0,0.0,98,0.00,,,0.84,Wunderground v.1.15,2013-08-13 02:40:00,
2013-08-12 22:45:00,65.6,65.0,29.95,NW,322,0.0,0.0,98,0.00,,,0.84,Wunderground v.1.15,2013-08-13 02:45:00,
2013-08-12 22:50:00,65.5,65.2,29.95,NW,322,0.0,0.0,99,0.00,,,0.84,Wunderground v.1.15,2013-08-13 02:50:00,
2013-08-12 22:55:00,65.5,65.2,29.94,NW,322,0.0,0.0,99,0.00,,,0.84,Wunderground v.1.15,2013-08-13 02:55:00,
2013-08-12 23:00:00,65.5,65.2,29.94,NW,322,0.0,0.0,99,0.00,,,0.84,Wunderground v.1.15,2013-08-13 03:00:00,
2013-08-12 23:10:00,65.3,65.0,29.94,NW,322,0.0,0.0,99,0.00,,,0.84,Wunderground v.1.15,2013-08-13 03:10:00,
2013-08-12 23:15:00,65.2,64.9,29.94,NW,322,0.0,0.0,99,0.00,,,0.84,Wunderground v.1.15,2013-08-13 03:15:00,
2013-08-12 23:20:00,65.2,64.9,29.94,NW,322,0.0,0.0,99,0.00,,,0.84,Wunderground v.1.15,2013-08-13 03:20:00,
2013-08-12 23:25:00,65.0,64.7,29.94,NW,322,0.0,0.0,99,0.00,,,0.84,Wunderground v.1.15,2013-08-13 03:25:00,
2013-08-12 23:30:00,64.8,64.5,29.94,NW,322,0.0,0.0,99,0.00,,,0.84,Wunderground v.1.15,2013-08-13 03:30:00,
2013-08-12 23:35:00,64.7,64.4,29.94,NW,322,0.0,0.0,99,0.00,,,0.84,Wunderground v.1.15,2013-08-13 03:35:00,
2013-08-12 23:45:00,64.5,64.2,29.95,NW,322,0.0,0.0,99,0.00,,,0.84,Wunderground v.1.15,2013-08-13 03:45:00,
2013-08-12 23:55:00,64.5,64.2,29.95,NW,322,0.0,0.0,99,0.00,,,0.84,Wunderground v.1.15,2013-08-13 03:55:00,